This demonstration page uses our WeatherBlox Daily Observations layout. Learn more.

Left ArrowRight Arrow

36.17497, -115.13722

Hourly Observations for July 17, 2017

Temp ( °F °C ) Dew Point ( °F °C ) Humidity (%) Winds ( mph kmh ) Pressure ( in mb ) Visibility ( mi km ) Precip ( " mm )
12:53 am 00:53 Clear 92 33.3 55 12.8 29 29 E 7 11 29.80 1009 10 16 N/A
1:53 am 01:53 Clear 91 32.8 55 12.8 30 30 SSW 5 7 29.80 1009 10 16 N/A
2:53 am 02:53 Mostly Cloudy 91 32.8 55 12.8 30 30 N N/A 29.78 1009 10 16 N/A
3:53 am 03:53 Clear 88 31.1 59 15 38 38 E 9 15 29.77 1008 10 16 N/A
4:53 am 04:53 Clear 88 31.1 57 13.9 35 35 ESE 6 9 29.78 1008 10 16 N/A
5:53 am 05:53 Sunny 81 27.2 60 15.6 49 49 ESE 5 7 29.80 1009 10 16 N/A
6:53 am 06:53 Sunny 88 31.1 58 14.4 36 36 E 3 6 29.82 1010 10 16 N/A
7:53 am 07:53 Sunny 91 32.8 59 15 34 34 ESE 10 17 29.83 1010 10 16 N/A
8:53 am 08:53 Sunny 94 34.4 62 16.7 35 35 ESE 12 19 29.82 1010 10 16 N/A
9:53 am 09:53 Sunny 95 35 60 15.6 31 31 SSE 7 11 29.82 1010 10 16 N/A
10:53 am 10:53 Sunny 97 36.1 60 15.6 29 29 undefined N/A 29.81 1010 10 16 N/A
11:53 am 11:53 Sunny 99 37.2 60 15.6 28 28 undefined N/A 29.80 1009 10 16 N/A
12:53 pm 12:53 Sunny 103 39.4 60 15.6 24 24 SE 15 24 29.77 1008 10 16 N/A
1:04 pm 13:04 Sunny 104 40 60 15.6 24 24 ESE 15 24 29.56 1001 10 16 N/A
1:53 pm 13:53 Sunny 106 41.1 58 14.4 21 21 SSE 14 22 29.72 1007 10 16 N/A
2:53 pm 14:53 Partly Cloudy 106 41.1 58 14.4 21 21 S 22 35 29.71 1006 10 16 N/A
3:09 pm 15:09 Mostly Sunny 98 36.7 60 15.6 28 28 SSW 21 33 29.56 1001 10 16 N/A
3:53 pm 15:53 Partly Cloudy 97 36.1 57 13.9 26 26 NW 22 35 29.74 1007 10 16 N/A
4:04 pm 16:04 Partly Cloudy with Light Rain 95 35 61 16.1 32 32 WNW 18 30 29.59 1002 10 16 N/A
4:21 pm 16:21 Mostly Cloudy with Rain 91 32.8 61 16.1 37 37 E 15 24 29.59 1002 2 3 N/A
4:30 pm 16:30 Cloudy 96 35.6 57 13.9 27 27 S 5 7 29.56 1001 10 16 N/A
4:53 pm 16:53 Mostly Sunny 97 36.1 63 17.2 33 33 S 7 11 29.70 1006 10 16 N/A
5:53 pm 17:53 Sunny 98 36.7 60 15.6 28 28 SSE 13 20 29.70 1006 10 16 N/A
6:53 pm 18:53 Sunny 98 36.7 54 12.2 23 23 SE 12 19 29.71 1006 10 16 N/A
7:53 pm 19:53 Sunny 96 35.6 60 15.6 30 30 SE 5 7 29.72 1006 10 16 N/A
8:53 pm 20:53 Clear 97 36.1 58 14.4 27 27 S 7 11 29.74 1007 10 16 N/A
9:53 pm 21:53 Clear 97 36.1 59 15 28 28 S 13 20 29.77 1008 10 16 N/A
10:53 pm 22:53 Clear 96 35.6 59 15 29 29 S 10 17 29.78 1009 10 16 N/A
11:53 pm 23:53 Clear 93 33.9 60 15.6 33 33 SSE 10 17 29.79 1009 10 16 N/A

Powered by AerisWeather